This demonstration page uses our WeatherBlox Daily Observations layout. Learn more.

Left ArrowRight Arrow

Hourly Observations for March 11, 2020

Temp ( °F °C ) Dew Point ( °F °C ) Humidity (%) Winds ( mph kmh ) Pressure ( in mb ) Visibility ( mi km ) Precip ( " mm )
12:53 am 00:53 Clear 52 11.1 39 3.9 61 61 NNW 5 7 29.97 1015 10 16 0.00 0.00
1:53 am 01:53 Clear 51 10.6 40 4.4 66 66 Calm 29.98 1015 10 16 0.00 0.00
2:53 am 02:53 Clear 47 8.3 40 4.4 77 77 SSE 13 20 30.01 1016 10 16 0.00 0.00
3:53 am 03:53 Clear 55 12.8 43 6.1 64 64 S 8 13 30.01 1016 10 16 0.00 0.00
4:53 am 04:53 Clear 48 8.9 41 5 77 77 N 5 7 30.04 1017 10 16 0.00 0.00
5:53 am 05:53 Clear 48 8.9 39 3.9 71 71 NE 3 6 30.06 1018 10 16 0.00 0.00
6:53 am 06:53 Clear 47 8.3 38 3.3 71 71 NNE 5 7 30.06 1018 10 16 0.00 0.00
7:53 am 07:53 Sunny 44 6.7 38 3.3 79 79 WNW 3 6 30.08 1019 10 16 0.00 0.00
8:53 am 08:53 Sunny 53 11.7 41 5 64 64 N 3 6 30.07 1018 10 16 0.00 0.00
9:53 am 09:53 Sunny 58 14.4 43 6.1 58 58 NNE 5 7 30.08 1019 10 16 0.00 0.00
10:53 am 10:53 Sunny 61 16.1 43 6.1 52 52 Calm 30.07 1018 10 16 0.00 0.00
11:53 am 11:53 Sunny 65 18.3 45 7.2 49 49 Calm 30.05 1018 10 16 0.00 0.00
12:53 pm 12:53 Sunny 67 19.4 46 7.8 47 47 SE 6 9 30.03 1017 10 16 0.00 0.00
1:53 pm 13:53 Sunny 69 20.6 43 6.1 39 39 Calm 30.01 1016 10 16 0.00 0.00
2:53 pm 14:53 Sunny 70 21.1 45 7.2 41 41 SSE 6 9 29.98 1015 10 16 0.00 0.00
3:53 pm 15:53 Sunny 72 22.2 44 6.7 37 37 VRB 5 7 29.95 1014 10 16 0.00 0.00
4:53 pm 16:53 Sunny 72 22.2 44 6.7 37 37 SSE 3 6 29.94 1014 10 16 0.00 0.00
5:53 pm 17:53 Sunny 72 22.2 45 7.2 38 38 SE 6 9 29.92 1013 10 16 0.00 0.00
6:53 pm 18:53 Sunny 67 19.4 48 8.9 51 51 SE 6 9 29.92 1013 10 16 0.00 0.00
7:53 pm 19:53 Clear 63 17.2 47 8.3 56 56 SE 6 9 29.94 1014 10 16 0.00 0.00
8:53 pm 20:53 Clear 60 15.6 47 8.3 62 62 Calm 29.95 1014 10 16 0.00 0.00
9:53 pm 21:53 Clear 57 13.9 46 7.8 67 67 NNE 3 6 29.97 1015 10 16 0.00 0.00
10:53 pm 22:53 Clear 53 11.7 45 7.2 74 74 Calm 29.98 1015 10 16 0.00 0.00
11:53 pm 23:53 Clear 52 11.1 45 7.2 77 77 Calm 29.99 1016 10 16 0.00 0.00

Powered by AerisWeather